When you browse on this site, cookies collect data to enhance your experience and personalize the content and advertising you see.
Visit our Privacy Policy to learn more. By continuing to use the site, you agree to this use of cookies and data.
  • în România
  • Lista ţărilor
  • Pe 7 zile
  • Temperatura apei
  • Meteo pe hartă
  • Widget-uri
  • user-avatar
    Intrare

    Meteo pe oră la Kobe

    Astăzi, 22 Ianuarie, Miercuri

    Timp Temperatura Precipitaţii Vânt Presiune Umiditate
    00:00 +3°C° 0 mm 4 m/s 766 mmHg 67%
    01:00 +3°C° 0 mm 4 m/s 766 mmHg 67%
    02:00 +3°C° 0 mm 3 m/s 766 mmHg 66%
    03:00 +3°C° 0 mm 3 m/s 766 mmHg 65%
    04:00 +2°C° 0 mm 3 m/s 766 mmHg 63%
    05:00 +2°C° 0 mm 3 m/s 765 mmHg 62%
    06:00 +3°C° 0 mm 2 m/s 765 mmHg 60%
    07:00 +4°C° 0 mm 2 m/s 765 mmHg 56%
    08:00 +5°C° 0 mm 2 m/s 766 mmHg 51%
    09:00 +7°C° 0 mm 2 m/s 766 mmHg 47%
    10:00 +8°C° 0 mm 2 m/s 766 mmHg 49%
    11:00 +9°C° 0 mm 2 m/s 765 mmHg 51%
    12:00 +12°C° 0 mm 2 m/s 765 mmHg 53%
    13:00 +12°C° 0 mm 2 m/s 764 mmHg 55%
    14:00 +12°C° 0 mm 2 m/s 764 mmHg 58%
    15:00 +12°C° 0 mm 3 m/s 764 mmHg 61%
    16:00 +11°C° 0 mm 3 m/s 764 mmHg 65%
    17:00 +11°C° 0 mm 3 m/s 764 mmHg 69%
    18:00 +10°C° 0 mm 3 m/s 764 mmHg 72%
    19:00 +10°C° 0.1 mm 3 m/s 764 mmHg 74%
    20:00 +10°C° 0.1 mm 3 m/s 765 mmHg 75%
    21:00 +10°C° 0.1 mm 3 m/s 765 mmHg 76%
    22:00 +10°C° 0.4 mm 3 m/s 764 mmHg 78%
    23:00 +10°C° 0.4 mm 2 m/s 764 mmHg 81%

    Mâine, 23 Ianuarie, Joi

    Timp Temperatura Precipitaţii Vânt Presiune Umiditate
    00:00 +10°C° 0.4 mm 2 m/s 763 mmHg 83%
    01:00 +10°C° 0.5 mm 3 m/s 763 mmHg 83%
    02:00 +10°C° 0.5 mm 3 m/s 763 mmHg 84%
    03:00 +10°C° 0.5 mm 4 m/s 762 mmHg 85%
    04:00 +8°C° 2.3 mm 4 m/s 762 mmHg 88%
    05:00 +8°C° 2.3 mm 5 m/s 761 mmHg 91%
    06:00 +8°C° 2.3 mm 5 m/s 761 mmHg 94%
    07:00 +9°C° 3.6 mm 5 m/s 761 mmHg 94%
    08:00 +9°C° 3.6 mm 6 m/s 761 mmHg 94%
    09:00 +9°C° 3.6 mm 6 m/s 761 mmHg 94%
    10:00 +10°C° 1 mm 6 m/s 760 mmHg 94%
    11:00 +10°C° 1 mm 6 m/s 759 mmHg 94%
    12:00 +12°C° 1 mm 5 m/s 759 mmHg 93%
    13:00 +12°C° 0.5 mm 5 m/s 759 mmHg 93%
    14:00 +13°C° 0.5 mm 4 m/s 758 mmHg 93%
    15:00 +13°C° 0.5 mm 4 m/s 758 mmHg 94%
    16:00 +13°C° 0.2 mm 3 m/s 758 mmHg 94%
    17:00 +13°C° 0.2 mm 2 m/s 758 mmHg 94%
    18:00 +12°C° 0.2 mm 2 m/s 758 mmHg 95%
    19:00 +12°C° 0 mm 1 m/s 758 mmHg 95%
    20:00 +12°C° 0 mm 1 m/s 759 mmHg 94%
    21:00 +12°C° 0 mm 1 m/s 759 mmHg 94%
    22:00 +12°C° 0 mm 1 m/s 759 mmHg 95%
    23:00 +12°C° 0 mm 2 m/s 759 mmHg 95%

    Poimâine, 24 Ianuarie, Vineri

    Timp Temperatura Precipitaţii Vânt Presiune Umiditate
    00:00 +11°C° 0 mm 3 m/s 760 mmHg 95%
    01:00 +11°C° 0 mm 3 m/s 760 mmHg 95%
    02:00 +11°C° 0 mm 3 m/s 759 mmHg 96%
    03:00 +12°C° 0 mm 3 m/s 759 mmHg 96%
    04:00 +12°C° 0 mm 3 m/s 760 mmHg 95%
    05:00 +11°C° 0 mm 3 m/s 760 mmHg 95%
    06:00 +12°C° 0 mm 2 m/s 761 mmHg 94%
    07:00 +13°C° 0 mm 2 m/s 761 mmHg 91%
    08:00 +13°C° 0 mm 2 m/s 762 mmHg 88%
    09:00 +13°C° 0 mm 2 m/s 762 mmHg 85%
    10:00 +13°C° 0 mm 3 m/s 762 mmHg 81%
    11:00 +13°C° 0 mm 4 m/s 762 mmHg 77%
    12:00 +13°C° 0 mm 5 m/s 762 mmHg 72%
    13:00 +13°C° 0 mm 5 m/s 762 mmHg 68%
    14:00 +13°C° 0 mm 6 m/s 762 mmHg 64%
    15:00 +12°C° 0 mm 7 m/s 762 mmHg 60%
    16:00 +11°C° 0 mm 8 m/s 763 mmHg 63%
    17:00 +10°C° 0 mm 8 m/s 763 mmHg 66%
    18:00 +7°C° 0 mm 9 m/s 764 mmHg 69%
    19:00 +6°C° 0 mm 9 m/s 765 mmHg 69%
    20:00 +6°C° 0 mm 9 m/s 765 mmHg 69%
    21:00 +5°C° 0 mm 9 m/s 766 mmHg 69%
    22:00 +5°C° 0 mm 8 m/s 766 mmHg 69%
    23:00 +4°C° 0 mm 8 m/s 766 mmHg 68%

    25 Ianuarie, Sâmbătă

    Timp Temperatura Precipitaţii Vânt Presiune Umiditate
    00:00 +4°C° 0 mm 8 m/s 766 mmHg 67%
    01:00 +4°C° 0 mm 8 m/s 766 mmHg 67%
    02:00 +4°C° 0 mm 7 m/s 766 mmHg 67%
    03:00 +4°C° 0 mm 7 m/s 766 mmHg 66%
    04:00 +3°C° 0 mm 7 m/s 766 mmHg 67%
    05:00 +3°C° 0 mm 7 m/s 766 mmHg 67%
    06:00 +3°C° 0 mm 6 m/s 766 mmHg 67%
    07:00 +3°C° 0 mm 6 m/s 766 mmHg 67%
    08:00 +3°C° 0 mm 6 m/s 766 mmHg 67%
    09:00 +4°C° 0 mm 6 m/s 766 mmHg 66%
    10:00 +5°C° 0 mm 5 m/s 766 mmHg 62%
    11:00 +6°C° 0 mm 5 m/s 765 mmHg 57%
    12:00 +7°C° 0 mm 5 m/s 765 mmHg 52%
    13:00 +7°C° 0.1 mm 4 m/s 765 mmHg 55%
    14:00 +8°C° 0.1 mm 3 m/s 764 mmHg 57%
    15:00 +8°C° 0.1 mm 3 m/s 764 mmHg 60%
    16:00 +7°C° 0.4 mm 3 m/s 764 mmHg 65%
    17:00 +7°C° 0.4 mm 3 m/s 764 mmHg 70%
    18:00 +5°C° 0.4 mm 3 m/s 765 mmHg 74%
    19:00 +5°C° 0.3 mm 3 m/s 764 mmHg 77%
    20:00 +5°C° 0.3 mm 3 m/s 764 mmHg 79%
    21:00 +5°C° 0.3 mm 3 m/s 764 mmHg 81%
    22:00 +5°C° 0.4 mm 4 m/s 764 mmHg 82%
    23:00 +5°C° 0.4 mm 4 m/s 763 mmHg 83%

    26 Ianuarie, Duminică

    Timp Temperatura Precipitaţii Vânt Presiune Umiditate
    00:00 +5°C° 0.4 mm 5 m/s 763 mmHg 84%
    01:00 +5°C° 0.7 mm 4 m/s 762 mmHg 86%
    02:00 +5°C° 0.7 mm 4 m/s 762 mmHg 87%
    03:00 +5°C° 0.7 mm 4 m/s 762 mmHg 89%
    04:00 +5°C° 1.4 mm 4 m/s 761 mmHg 90%
    05:00 +5°C° 1.4 mm 4 m/s 761 mmHg 91%
    06:00 +5°C° 1.4 mm 5 m/s 761 mmHg 91%
    07:00 +6°C° 0.9 mm 5 m/s 760 mmHg 91%
    08:00 +6°C° 0.9 mm 5 m/s 760 mmHg 91%
    09:00 +6°C° 0.9 mm 4 m/s 760 mmHg 91%
    10:00 +6°C° 0.6 mm 4 m/s 760 mmHg 91%
    11:00 +6°C° 0.6 mm 4 m/s 760 mmHg 91%
    12:00 +6°C° 0.6 mm 4 m/s 759 mmHg 91%
    13:00 +6°C° 0.8 mm 4 m/s 759 mmHg 91%
    14:00 +6°C° 0.8 mm 5 m/s 759 mmHg 91%
    15:00 +6°C° 0.8 mm 5 m/s 759 mmHg 91%
    16:00 +6°C° 0.5 mm 5 m/s 758 mmHg 91%
    17:00 +7°C° 0.5 mm 5 m/s 758 mmHg 91%
    18:00 +7°C° 0.5 mm 5 m/s 758 mmHg 91%
    19:00 +7°C° 0.9 mm 5 m/s 758 mmHg 91%
    20:00 +7°C° 0.9 mm 5 m/s 758 mmHg 91%
    21:00 +7°C° 0.9 mm 6 m/s 758 mmHg 91%
    22:00 +5°C° 0.8 mm 6 m/s 758 mmHg 90%
    23:00 +5°C° 0.8 mm 6 m/s 758 mmHg 90%

    27 Ianuarie, Luni

    Timp Temperatura Precipitaţii Vânt Presiune Umiditate
    00:00 +5°C° 0.8 mm 6 m/s 758 mmHg 89%
    01:00 +5°C° 0.6 mm 6 m/s 758 mmHg 88%
    02:00 +5°C° 0.6 mm 7 m/s 758 mmHg 86%
    03:00 +5°C° 0.6 mm 7 m/s 757 mmHg 85%
    04:00 +5°C° 0.5 mm 7 m/s 757 mmHg 84%
    05:00 +5°C° 0.5 mm 7 m/s 757 mmHg 84%
    06:00 +5°C° 0.5 mm 7 m/s 757 mmHg 84%
    07:00 +5°C° 0.7 mm 7 m/s 757 mmHg 84%
    08:00 +5°C° 0.7 mm 6 m/s 757 mmHg 85%
    09:00 +5°C° 0.7 mm 6 m/s 757 mmHg 85%
    10:00 +5°C° 1.1 mm 6 m/s 757 mmHg 86%
    11:00 +5°C° 1.1 mm 6 m/s 757 mmHg 87%
    12:00 +5°C° 1.1 mm 6 m/s 757 mmHg 88%
    13:00 +5°C° 0.8 mm 6 m/s 757 mmHg 87%
    14:00 +7°C° 0.8 mm 6 m/s 756 mmHg 87%
    15:00 +6°C° 0.8 mm 7 m/s 756 mmHg 86%
    16:00 +6°C° 0.5 mm 7 m/s 756 mmHg 86%
    17:00 +6°C° 0.5 mm 7 m/s 756 mmHg 86%
    18:00 +5°C° 0.5 mm 8 m/s 756 mmHg 86%
    19:00 +5°C° 0.3 mm 8 m/s 756 mmHg 84%
    20:00 +5°C° 0.3 mm 8 m/s 756 mmHg 82%
    21:00 +4°C° 0.3 mm 8 m/s 757 mmHg 79%
    22:00 +4°C° 1.1 mm 8 m/s 757 mmHg 82%
    23:00 +4°C° 1.1 mm 7 m/s 757 mmHg 84%
    Arată mai mult